FENGYUN 4A (41882 NORAD) Tracking and Keplerian Element Data

This shows tracking and keplerian element data for the satellite.

Feedback or suggestion? Click here.




ElementValue
Catalog41882
NameFENGYUN 4A
Epoch Orbit2757
Epoch Day160.08379619
Epoch Year2024
RAAN85.4283
Inclination0.4366
Eccentricity0.0007888
Argument of Perigee343.2467
Mean Anonmoly305.5016
Mean Motion1.00269666
Decay Rate-2.03E-06
L11 41882U 16077A 24160.08379619 -.00000203 00000+0 00000+0 0 9994
L22 41882 0.4366 85.4283 0007888 343.2467 305.5016 1.00269666 27571



Live tracking and technical data element details for FENGYUN 4A (NORAD 41882). FENGYUN 4A can be tracked NOW for your location showing map with azimuth and elevation plus other details from your city location.







IsCatalogInMostPopularTable: catalog: 41882, numindb: 600
Update: records affected: 1



GetName: 41882 FENGYUN 4A

Hit Count: updated at: Sun, 23 Jun 2024 02:40:46 GMT